Weather in Kokshetau

Kazakhstan     53°17′04″N   69°22′39″E
temp.,
°C
wind,
m/s
gust,
m/s
humid.,
%
clouds,
%
prec.,
mm/h
press.,
hPa
HPBL,
m
12 may, wed
wed1200:00+13ne11480 0.0 102610
03:00+12w225136 0.0 102614
06:00+11w345651 0.0 102657
09:00+16nw46425 0.0 1026339
12:00+21nw68286 0.0 10251913
15:00+22wnw7823100 0.0 10242224
18:00+22nw6929100 0.0 10242210
21:00+18w41047100 0.0 1023188
13 may, thu
thu1300:00+16n51047100 0.0 1024453
03:00+12n3659100 0.0 1025131
06:00+10nnw3458100 0.0 102669
09:00+15nnw353997 0.0 1026550
12:00+16wnw464689 0.0 1025515
15:00+22nw81038100 0.0 10232278
18:00+22nw61039100 0.0 10221261
21:00+19nw394835 0.0 1022201
14 may, fri
fri1400:00+18ene4756100 0.0 1023217
03:00+14nne22755 0.0 102421
06:00+12nne34895 0.0 102670
09:00+17ene34595 0.0 1028553
12:00+20ne33375 0.0 10281487
15:00+22nne23295 0.0 10271804
18:00+23nnw22266 0.0 10271851
21:00+20w11360 0.0 102711
15 may, sat
sat1500:00+17sw224189 0.0 102711
03:00+16sw3446100 0.0 102654
06:00+14sw48545 0.0 1026120
09:00+20wsw58435 0.0 1026371
12:00+26wsw55334 0.0 10251604
15:00+27w462877 0.0 10232917
18:00+28w672762 0.0 10223079
21:00+23sw474248 0.0 1021151
16 may, sun
sun1600:00+19wsw512505 0.0 1021196
03:00+18wsw410545 0.0 1020177
06:00+17wsw311620 0.0 1020187
09:00+23w68425 0.0 1020395
12:00+28wnw57315 0.0 10191896
15:00+29wnw67255 0.0 10182942
18:00+29nw672374 0.0 10183137
21:00+25wnw343880 0.0 101960